Погода Имени Попова

Погода Имени Попова : погода сейчас, прогноз погоды и архив. Всё, что Вы хотите узнать о погоде Имени Попова!

Поиск расширенной информации на нашем сайте:

Другие новости

Новости СМИ2

Главная страница сайта

Новости сайта

02.10.2013

Напоминаем, что на нашем новом сайте вы можете получить высокодетализированные прогнозы погоды по пунктам России, СНГ и мира (включающие важные для авиации метеовеличины, такие как направление и скорость ветра, видимость, явления погоды, количество и форма облачности, нижняя и верхняя граница облачности), а также ознакомиться с разнообразными материалами по авиационной метеорологии и подборкой полезных ссылок на эту тему.

Сайт Метеоцентр.Азия посвящён разработке технологий оптимизации авиаметеорологического обслуживания, включая проектирование и перспективное создание нескольких автоматизированных авиаметеорологических систем:
- система выпуска высокодетальных прогностических карт явлений погоды для нижнего воздушного пространства по России и ближнему зарубежью;
- система верификации прогнозов TAF (выпускаемых синоптиками официальных АМСГ РФ и ближнего зарубежья) и AUTOTAF (выпускаемых сайтом Метеоцентр.Азия) - выявление ошибок, онлайн-сопоставление с фактической погодой METAR, автоматическое внесение коррективов в прогнозы при резком отклонении фактической погоды от прогноза, подсчёт оправдываемости прогнозов по элементам и в целом;
- система обработки, анализа и отображения авиаметеорологической информации для применения провайдерами метеорологической информации.

Рекомендуем: Юридический перевод украинского паспорта http://www.english-perewod.ru.

Погода Имени Попова - сегодня

Время (UTC), дата Ветер
(°,м/с) 
Видим.   Явления Облачность Т
(°С)
Тd
(°С)
f(%) Тe
(°С)
Pmin
(гПа)
dP
(гПа)
Po
(мм)
O2
(г/м3)
Тmin Tmax R s Состояние
почвы
03 24.02.17 240 (ЮЗ) 20000 м    10/0 верхняя 
[Cs]
-19 -20.6 87 -26  1011.8  0.2  758  330  -30.3      33  неравномерный
сухой снег
100% 
06 24.02.17 250 (З) 4000 м  позёмок  10/0 средняя 
[As op]
-13.6 -14.8 91 -20  1012.5  0.8  759  323           
09 24.02.17 260 (З) 9-12{12}  2000 м  позёмок  10/0 верхняя 
[Cs]
-12.5 -13.5 92 -20  1014.6  760  322           
12 24.02.17 250 (З) 7{12}  20000 м  позёмок  8/0 верхняя 
[Cs]
-15.3 -16.6 90 -22  1017.1  2.5  762  327           
15 24.02.17 240 (ЮЗ) 20000 м    3/0 верхняя 
[Cs]
-18.2 -19.8 87 -25  1018.5  1.4  763  331    -12.3       
18 24.02.17 220 (ЮЗ) 20000 м    10/0 средняя 
[As trans]
-17.6 -19.2 87 -23  1019.8  1.3  764  331           
21 24.02.17 200 (Ю) 20000 м    ясно 
-20.9 -22.9 84 -28  1020.8  0.9  765  335           
00 25.02.17 160 (Ю) 20000 м    ясно 
-25.7 -28.1 80 -34  1020.7  0.1  765  342           
03 25.02.17 180 (Ю) 20000 м  позёмок  8/0 средняя, верхняя 
[As trans|Cs]
-23.6 -25.8 82 -32  1020.8  0.1  765  339  -26.1      33  неравномерный
сухой снег
100% 
06 25.02.17 180 (Ю) 8-10{11}  20000 м  позёмок  6/0 верхняя 
[Cs]
-21.9 -24 83 -31  1020.8  765  337           
09 25.02.17 170 (Ю) 8-10{11}  20000 м  позёмок  3/0 верхняя 
[Ci fib]
-22.2 -24.4 82 -31  1021.1  0.4  765  337           
12 25.02.17 170 (Ю) 9-11{11}  20000 м  позёмок  ясно 
-23.2 -25.5 81 -33  1020.8  -0.3  765  339           
15 25.02.17 170 (Ю) 10-12{12}  н/о    н/о 
-22.4 -24.6 82 -33  1020.2  -0.6  765  337    -21.2       
18 25.02.17 170 (Ю) 13-17{17}  4000 м  слаб. снег  10/0 средняя 
[As op]
-20.1 -21.9 86 -31  1019.8  -0.4  764  334           
21 25.02.17 160 (Ю) 10-14{17}  4000 м  слаб. снег  10/0 средняя 
[As op]
-18.1 -19.7 87 -27  1020.2  0.4  765  332           
00 26.02.17 160 (Ю) 11-14{15}  4000 м  метель{снег}  ясно 
-18.5 -20.3 86 -28  1019.4  -0.8  764  332           
03 26.02.17 160 (Ю) 10-12{16}  4000 м  позёмок  10/0 средняя, верхняя 
[As trans|Cs]
-20.2 -22.3 83 -30  1019.6  0.2  764  334  -22.4      33  неравномерный
сухой снег
100% 
06 26.02.17 160 (Ю) 10-14{14}  2000 м  метель  8/0 верхняя 
[Cs]
-20.3 -22.4 83 -30  1019.8  0.2  764  334  -21         
09 26.02.17 160 (Ю) 9-12{14}  4000 м  метель  4/0 верхняя 
[Cs]
-18.9 -20.9 84 -28  1020.5  0.7  765  333           
12 26.02.17 150 (ЮВ) 11-13{15}  2000 м  метель  3/0 верхняя 
[Cs]
-18.6 -20.3 86 -28  1020.3  -0.2  765  332           
15 26.02.17 150 (ЮВ) 10-12{15}  2000 м  метель  3/0 верхняя 
[Cs]
-19.2 -20.9 86 -29  1020.3  765  333    -18       
18 26.02.17 130 (ЮВ) 9-11{12}  4000 м  метель  ясно 
-20.2 -22 86 -29  1020.3  765  334           
21 26.02.17 120 (ЮВ) 9-11{13}  4000 м  метель  ясно 
-21.1 -23.1 84 -30  1019.5  764  335           
00 27.02.17 110 (В) 9-12{13}  4000 м  метель  ясно 
-21 -23.2 82 -30  1017.4  -2  763  335           
03 27.02.17 090 (В) 9-12{14}  4000 м  позёмок  10/0 средняя, верхняя 
[As trans|Cs]
-19.6 -21.4 86 -29  1013.9  -3.5  760  331  -21.7      33  неравномерный
сухой снег
100% 
Время (UTC), дата Ветер
(°,м/с) 
Видим.   Явления Облачность Т
(°С)
Тd
(°С)
f(%) Тe
(°С)
Pmin
(гПа)
dP
(гПа)
Po
(мм)
O2
(г/м3)
Тmin Tmax R s Состояние
почвы

Для получения пояснительной информации подведите курсор к названию столбца.

ПОГОДА Имени Попова - архив

Всё, что Вы хотите узнать о погоде Имени Попова - удобно и подробно!

Выберите нужную дату (начиная с 1 января 2015* года) и нажмите кнопку "Найти".
Будут отображены архивные сводки погоды по пункту Имени Попова, начиная с указанной даты.


Отображать данные в формате CSV (для использования в таблицах Excel)


Внимание! Наш архив погоды предназначен исключительно для личного некоммерческого использования в познавательных целях. Если Вам необходимы официальные справки о состоянии погоды (для производственных, юридических, коммерческих и т.п. целей), обращайтесь в органы Росгидромета.

*Примечание: данная дата относится к архиву по метеостанциям СССР (Россия, СНГ, Балтия).
Архив по метеостанциям Зарубежной Европы и Азии (кроме Китая) хранится 10 дней, по другим регионам земного шара (Китай, Африка, Америка, Австралия, Океания) - 1 день.

Имени Попова - район местоположения метеостанции


Название, широта, долгота, высота метеостанции:
Имени Попова 73.3°ш. 70.1°д. 7 м над ур. моря [Российская Федерация]

Дополнительная информация

В oтличие oт бoльшинства пoгoдных сайтoв мы публикуем пoдрoбную метеoинфoрмацию в детальнoм прoфессиoнальнoм фoрмате.

Характеристики температуры и влажнoсти вoздуха измеряются на высoте 2 м в тени вдали oт зданий и деревьев.
Скoрoсть ветра измеряется на высoте 10 м (на урoвне рoста челoвека скoрoсть ветра ниже в 1.5-2 раза). Если метеoстанция нахoдится в гoрoде или в лесу, тo скoрoсть ветра занижена на 2-4 м/с пo сравнению с oткрытым местoм. Скoрoсть ветра над акватoриями крупных рек и oзёр, а также на вершинах хoлмoв на 2-5 м/с выше, чем в oбычных услoвиях.
Атмoсфернoе давление в разных тoчках местнoсти мoжет значительнo oтличаться oт давления на метеoстанции, в зависимoсти oт услoвий рельефа (при пoдъёме на 10 м давление пoнижается примернo на 1 мм рт.ст.).